Regional Weather Roundup
Issued by NWS

Home | Current Version | Previous Version | Text Only | Print | Product List | Glossary On
Versions: 1 2 3 4 5 6 7 8 9 10 11 12 13 14 15 16 17 18 19 20 21 22 23 24 25 26 27 28 29 30 31 32 33 34 35 36 37 38 39 40 41 42 43 44 45 46 47 48 49 50
000
ASUS44 KOUN 310410
RWROK

WEATHER ROUNDUP FOR OKLAHOMA
NATIONAL WEATHER SERVICE NORMAN OK
1100 PM CDT FRI JUL 30 2021

NOTE: "FAIR" INDICATES FEW OR NO CLOUDS BELOW 12,000 FEET WITH NO
      SIGNIFICANT WEATHER AND/OR OBSTRUCTIONS TO VISIBILITY.

OKZ001>007-009>012-014-015-017-310500-
NORTHWEST OKLAHOMA AND THE PANHANDLE

CITY           SKY/WX    TMP DP  RH WIND       PRES   REMARKS
GAGE           CLEAR     80  64  58 S10       30.08R
GUYMON         CLEAR     80  62  54 S9        30.10R
ENID/WOODRING  CLEAR     79  72  78 SE5       30.04R
$$

OKZ016-021>023-033>039-044-045-310500-
SOUTHWEST OKLAHOMA

CITY           SKY/WX    TMP DP  RH WIND       PRES   REMARKS
LAWTON/REGL    CLEAR     82  70  66 E5        30.04R
LAWTON/FT SILL CLEAR     82  71  70 SE7       30.04R
FREDERICK      CLEAR     84  70  62 SE7       30.02R
CLINTON        CLEAR     83  68  60 SE8       30.09R
HOBART         CLEAR     80  69  69 SE7       30.07R
ALTUS AFB      CLEAR     79  69  73 SE7       30.03R
$$

OKZ018>020-024>031-310500-
CENTRAL OKLAHOMA

CITY           SKY/WX    TMP DP  RH WIND       PRES   REMARKS
OKLAHOMA CITY  CLEAR     79  71  76 S5        30.07R
OKC/WILEY POST CLEAR     83  71  67 S7        30.06R
OKC/TINKER AFB CLEAR     82  74  74 S8        30.05R
STILLWATER     CLEAR     83  73  72 S6        30.04R
GUTHRIE        CLEAR     82  74  76 SE6       30.05R
$$

OKZ008-013-054>072-310500-
NORTHEAST OKLAHOMA

CITY           SKY/WX    TMP DP  RH WIND       PRES   REMARKS
TULSA          CLEAR     88  69  53 S7        30.01S HX  92
TULSA/JONES    CLEAR     79  76  90 CALM      30.02S
PONCA CITY     CLEAR     87  72  60 S7        30.02R HX  93
BARTLESVILLE   CLEAR     78  76  93 S5        30.02F
MUSKOGEE       CLEAR     81  76  84 S5        30.04S
$$

OKZ032-040>043-046>053-073>077-310500-
SOUTH CENTRAL/SOUTHEAST OKLAHOMA

CITY           SKY/WX    TMP DP  RH WIND       PRES   REMARKS
ARDMORE/DWNTWN CLEAR     81  76  83 CALM      30.05R
MCALESTER      CLEAR     78  72  81 CALM      30.05R
$$




USA.gov is the U.S. government's official web portal to all federal, state and local government web resources and services.